Location: Manchester NH
(43.0000°N, 71.5000°W)
Time: 18:09:41
(UTC-04:00)

N. Korean satellite - Visible Passes

Search period start: 17 October 2017 00:00
Search period end: 27 October 2017 00:00
Orbit: 459 x 517 km, 97.2° (Epoch: 17 October)

Date Brightness Start Highest point End Pass type
(mag) Time Alt. Az. Time Alt. Az. Time Alt. Az.
17 Oct 9.8 19:50:11 10° SW 19:52:14 15° W 19:54:18 10° WNW visible
18 Oct 8.8 19:25:42 10° SSW 19:28:46 27° W 19:31:50 10° NW visible
19 Oct 7.2 19:01:54 10° S 19:05:22 56° W 19:08:50 10° NNW visible
20 Oct 10.6 06:30:42 10° E 06:31:13 10° E 06:31:43 10° E visible
20 Oct 6.4 18:38:32 10° SSE 18:42:02 69° ENE 18:45:30 10° N visible
21 Oct 9.9 19:50:26 10° SW 19:52:25 14° W 19:54:23 10° WNW visible
22 Oct 8.8 19:25:54 10° SSW 19:28:56 27° W 19:31:56 10° NW visible
23 Oct 7.2 19:02:05 10° S 19:05:30 55° W 19:08:55 10° NNW visible
24 Oct 10.6 06:30:34 10° ENE 06:31:21 11° E 06:32:08 10° ESE visible
24 Oct 6.4 18:38:41 10° SSE 18:42:09 69° ENE 18:45:36 10° N visible
25 Oct 7.1 18:15:43 10° SE 18:18:52 33° ENE 18:22:01 10° N visible
25 Oct 9.8 19:50:37 10° SW 19:52:31 14° W 19:54:25 10° WNW visible
26 Oct 8.8 19:26:02 10° SSW 19:29:01 26° W 19:31:59 10° NW visible
